Weather History for Kenosha, WI

Change the Weather History Date:

Thursday, October 25, 2012

  Actual Average Record
Temperature  
Mean Temperature 58 °F -  
Max Temperature 75 °F 55 °F 75 °F (1964)
Min Temperature 43 °F 39 °F 23 °F (1962)
Degree Days  
Heating Degree Days 7    
Growing Degree Days 8 (Base 50)    
Moisture  
Dew Point 54 °F    
Average Humidity 75    
Maximum Humidity 87    
Minimum Humidity 64    
Precipitation  
Precipitation 0.13 in - - ()
Sea Level Pressure  
Sea Level Pressure 29.77 in    
Wind  
Wind Speed 16 mph (SW)    
Max Wind Speed 24 mph    
Max Gust Speed 39 mph    
Visibility 9 miles    
Events Rain    
Averages and records for this station are not official NWS values.
T = Trace of Precipitation, MM = Missing Value Source: NWS Daily Summary

Daily Weather History Graph

Daily Weather History Graph

Search for Another Location

Airport:

Trip Planner

Search our weather history database for the weather conditions in past years. The results will help you decide how hot, cold, wet, or windy it might be!

Date:

Astronomy

Oct. 25, 2012 Rise Set
Actual Time 7:17 AM CDT 5:53 PM CDT
Civil Twilight 6:48 AM CDT 6:22 PM CDT
Nautical Twilight 6:15 AM CDT 6:55 PM CDT
Astronomical Twilight 5:42 AM CDT 7:27 PM CDT
Moon 3:43 PM CDT (10/25) 3:08 AM CDT (10/25)
Length of Visible Light 11h 33m
Length of Day
10h 36m
Waxing Gibbous, 84% of the Moon is Illuminated
Oct 25
Waxing Gibbous
Oct 29
Full
Nov 6
Last Quarter
Nov 13
New
Nov 20
First Quarter

Hourly Weather History & Observations

Time (CDT) Temp. Windchill Dew Point Humidity Pressure Visibility Wind Dir Wind Speed Gust Speed Precip Events Conditions
12:53 AM 69.1 °F - 61.0 °F 75% 29.81 in 10.0 mi SSW 11.5 mph - N/A   Clear
1:53 AM 69.1 °F - 61.0 °F 75% 29.79 in 10.0 mi South 13.8 mph - N/A   Clear
2:53 AM 68.0 °F - 60.1 °F 76% 29.79 in 10.0 mi South 9.2 mph - N/A   Clear
3:53 AM 66.9 °F - 60.1 °F 79% 29.78 in 10.0 mi South 12.7 mph - N/A   Clear
4:53 AM 66.9 °F - 60.1 °F 79% 29.78 in 10.0 mi South 9.2 mph - N/A   Overcast
5:53 AM 66.9 °F - 60.1 °F 79% 29.78 in 10.0 mi South 11.5 mph - N/A   Overcast
6:53 AM 66.9 °F - 59.0 °F 76% 29.77 in 10.0 mi SSW 17.3 mph 23.0 mph N/A   Scattered Clouds
7:53 AM 66.9 °F - 59.0 °F 76% 29.77 in 10.0 mi SSW 17.3 mph - N/A   Clear
9:53 AM 71.1 °F - 60.1 °F 68% 29.72 in 10.0 mi SSW 20.7 mph 29.9 mph N/A   Clear
10:53 AM 73.0 °F - 60.1 °F 64% 29.70 in 10.0 mi SSW 20.7 mph 29.9 mph N/A   Clear
11:53 AM 72.0 °F - 60.1 °F 66% 29.69 in 10.0 mi SSW 24.2 mph 36.8 mph N/A   Overcast
12:53 PM 73.0 °F - 60.1 °F 64% 29.67 in 10.0 mi SSW 19.6 mph 28.8 mph N/A   Mostly Cloudy
1:11 PM 73.4 °F - 60.8 °F 65% 29.67 in 10.0 mi SSW 20.7 mph 33.4 mph N/A   Overcast
1:53 PM 73.0 °F - 60.1 °F 64% 29.65 in 10.0 mi SSW 21.9 mph 39.1 mph N/A   Overcast
2:53 PM 73.9 °F - 61.0 °F 64% 29.65 in 10.0 mi SSW 20.7 mph 33.4 mph N/A   Overcast
3:53 PM 73.9 °F - 61.0 °F 64% 29.64 in 10.0 mi South 18.4 mph 29.9 mph N/A   Overcast
4:53 PM 73.9 °F - 61.0 °F 64% 29.64 in 10.0 mi SSW 19.6 mph 35.7 mph N/A   Overcast
5:35 PM 64.4 °F - 57.2 °F 77% 29.70 in 10.0 mi West 19.6 mph 34.5 mph 0.01 in   Overcast
5:53 PM 60.1 °F - 53.1 °F 78% 29.73 in 10.0 mi West 19.6 mph 31.1 mph 0.01 in   Overcast
6:53 PM 53.1 °F - 48.0 °F 83% 29.77 in 10.0 mi WNW 15.0 mph - 0.00 in   Overcast
7:37 PM 50.0 °F - 46.4 °F 87% 29.81 in 2.0 mi WNW 17.3 mph 25.3 mph 0.10 in Rain Light Rain
8:03 PM 46.4 °F 39.0 °F 42.8 °F 87% 29.83 in 2.5 mi WNW 19.6 mph 31.1 mph 0.05 in Rain Heavy Rain
8:08 PM 46.4 °F 39.2 °F 42.8 °F 87% 29.85 in 4.0 mi WNW 18.4 mph 27.6 mph 0.07 in Rain Rain
8:53 PM 45.0 °F 37.9 °F 41.0 °F 86% 29.89 in 10.0 mi West 16.1 mph 27.6 mph 0.11 in Rain Light Rain
9:08 PM 44.6 °F 35.9 °F 39.2 °F 81% 29.88 in 9.0 mi WNW 23.0 mph 32.2 mph 0.01 in Rain Light Rain
9:53 PM 43.0 °F 35.7 °F 37.9 °F 82% 29.95 in 10.0 mi WNW 15.0 mph 29.9 mph 0.01 in   Overcast
10:53 PM 44.1 °F 36.5 °F 37.0 °F 76% 30.00 in 10.0 mi NW 17.3 mph 27.6 mph N/A   Overcast